Location: Çatak
(37.0030°N, 29.5287°E)
Time: 10:10:37
(UTC+00:00)

Daily predictions for brighter satellites

Satellite Brightness Start Highest point End
(mag) Time Altitude Azimuth Time Altitude Azimuth Time Altitude Azimuth
OAO 3 Copernicus 4.5 17:43:56 10° WSW 17:48:52 57° SSE 17:53:47 10° E
Meteor 1-31 Rocket 2.8 17:49:48 10° SSE 17:53:04 47° ENE 17:56:23 10° N
ERS-1 Rocket 3.4 17:49:54 10° SE 17:54:39 47° ENE 17:59:27 10° N
ODIN 4.5 17:52:11 10° S 17:54:58 80° W 17:57:47 10° NNW
NOSS 2-2 (E) 3.0 17:51:25 10° SSW 17:55:27 87° WNW 17:58:39 10° NNE
Cosmos 2237 Rocket 4.0 17:52:55 10° NW 17:57:46 30° WSW 18:02:35 10° SSW
Meteor 2-4 Rocket 4.4 17:52:42 10° SSE 17:57:47 35° E 18:02:59 10° NNE
Cosmos 1238 Rocket 4.2 17:53:55 10° SSE 17:58:07 30° E 18:02:17 10° NNE
SL-24 R/B - RUBIN 2 4.3 17:57:02 10° S 18:01:18 34° ESE 18:05:19 10° NE
Meteor 2-9 Rocket 4.4 17:58:03 10° N 18:03:51 87° W 18:09:42 10° S
SL-16 R/B 2.2 18:00:01 10° NNW 18:05:44 77° ENE 18:11:23 10° SSE
Meteor 1-14 Rocket 4.5 18:03:54 10° NNW 18:09:33 75° W 18:15:18 10° S
OAO 2 Rocket 3.9 18:06:26 10° SW 18:11:20 40° SSE 18:16:13 10° E
MOS 1 4.3 18:06:26 10° SSE 18:12:04 71° ENE 18:17:46 10° N
SL-08 R/B 3.6 18:08:04 10° NNE 18:12:26 43° E 18:16:46 10° S
Okean O Rocket 2.9 18:10:12 11° ESE 18:13:22 24° ENE 18:16:51 10° NNE
ATLAS 2AS CENTAUR R/B 2.9 18:07:58 10° NNW 18:14:40 59° NE 18:20:44 13° SE
Cosmos 2219 3.7 18:10:56 10° SSW 18:16:29 64° WNW 18:22:05 10° NNE
Cosmos 1943 4.0 18:13:02 10° N 18:18:10 35° ENE 18:22:26 14° ESE
FALCON 9 R/B 4.3 18:15:15 10° WSW 18:22:34 45° S 18:45:19 13° ESE
Cosmos 1975 4.0 18:22:35 10° NNW 18:25:55 36° W 18:29:12 10° SSW
Hubble Space Telescope 2.0 18:24:16 10° SW 18:27:08 21° S 18:28:25 18° SSE
PAYLOAD B 4.3 18:23:20 10° SSE 18:28:53 87° WSW 18:34:31 10° NNW
Cosmos 1900 4.3 18:24:27 10° NNW 18:29:19 83° WSW 18:33:21 15° SSE
BlueWalker 3 1.9 18:26:18 10° NW 18:29:48 61° NE 18:32:03 20° ESE
Cosmos 836 Rocket 4.4 18:24:56 10° SSW 18:30:05 83° ESE 18:35:18 10° NNE
Cosmos 1125 Rocket 3.5 18:27:09 10° NNW 18:32:24 77° ENE 18:36:36 16° SSE
CENTAUR R/B 3.8 18:33:24 10° WSW 18:38:20 40° NW 18:44:28 10° NNE
USA 186 2.7 18:41:04 20° ENE 18:41:04 20° ENE 18:42:51 10° NNE
Sich 1 4.4 18:39:57 10° NNE 18:43:18 22° ENE 18:44:42 19° ESE
Terra 2.3 18:39:57 10° S 18:44:34 59° W 18:49:14 10° NNW
Meteor 1-27 Rocket 4.2 18:42:24 10° SSW 18:47:56 60° W 18:53:25 10° N
Cosmos 2208 Rocket 3.9 18:46:28 10° SSW 18:51:42 89° E 18:56:53 10° NNE
Cosmos 44 Rocket 3.7 18:47:41 10° NNW 18:52:44 55° ENE 18:55:26 25° SE
SPOT 3 Rocket 4.3 18:53:26 23° ESE 18:55:56 37° ENE 19:00:39 10° N
Cosmos 1758 4.4 18:56:53 10° NNE 18:59:57 24° ENE 19:00:22 24° E
Cosmos 2227 4.4 18:54:22 10° SSW 19:00:05 77° WNW 19:05:52 10° NNE
Meteor 2-20 Rocket 4.3 18:54:27 10° S 19:00:12 86° W 19:06:10 10° N
NOSS 3-2 (A) 3.3 19:00:52 10° SW 19:05:38 68° NW 19:11:11 10° NNE
Ariane Rocket 3.8 19:04:04 25° ESE 19:06:04 35° ENE 19:10:38 10° N
Cosmos 2266 Rocket 4.4 19:00:59 10° NNW 19:07:09 65° W 19:12:44 13° S
YAOGAN 11 4.3 19:04:23 10° N 19:08:49 74° WNW 19:12:40 13° SSW
Spot 2 Rocket 3.6 19:05:31 21° S 19:08:54 72° WSW 19:13:58 10° NNW
CZ-4 R/B 3.9 19:07:41 10° SW 19:09:41 14° W 19:11:41 10° WNW
Okean-O 2.6 19:07:29 27° S 19:09:49 77° WSW 19:14:13 10° NNW
CZ-4B R/B 4.1 19:05:22 11° S 19:10:20 44° W 19:15:29 10° NNW
HBTSS-SV1 4.3 19:06:40 10° WSW 19:11:03 80° SSE 19:14:47 14° ENE
EXPRESS MD2 3.5 19:07:57 10° NW 19:11:42 40° NNE 19:12:23 33° ENE
Okean 3 Rocket 4.1 19:08:35 10° N 19:12:48 42° E 19:13:50 35° ESE
Cosmos 1842 Rocket 4.0 19:14:15 16° SSW 19:17:41 63° W 19:22:06 10° N
Cosmos 1603 4.1 19:14:02 10° N 19:19:36 50° ENE 19:21:50 32° ESE
Cosmos 1844 Rocket 3.6 19:17:33 10° SW 19:22:54 48° WNW 19:28:17 10° N
Cosmos 1408 Rocket 4.4 19:19:33 10° NNE 19:23:34 33° ENE 19:24:04 32° E
Cosmos 1340 Rocket 3.0 19:21:23 10° N 19:25:01 46° E 19:25:08 46° E
Cosmos 1553 Rocket 4.2 19:22:42 32° SSE 19:25:33 55° E 19:31:43 10° NNE
USA 245 3.1 19:26:53 58° SE 19:27:31 74° ENE 19:30:57 10° N
OAO 3 Rocket 3.0 19:23:08 10° W 19:27:39 65° S 19:28:37 50° SE
Meteor 2-10 Rocket 3.9 19:24:53 10° NNW 19:30:40 69° W 19:33:41 28° S
ATLAS 5 CENTAUR R/B 2.7 19:29:36 37° S 19:31:08 62° ESE 19:41:50 10° NE
SL-14 R/B 3.8 19:31:17 31° SW 19:32:45 51° W 19:36:23 10° N
CZ-4C R/B 3.2 19:25:25 10° NW 19:32:58 79° WSW 19:37:47 31° SSE
OAO 3 Copernicus 4.2 19:28:05 10° W 19:33:06 71° S 19:34:33 45° ESE
Cosmos 1151 Rocket 2.9 19:37:49 58° SSE 19:38:36 79° E 19:42:57 10° N
Cosmos 2344 3.9 19:38:57 32° SSE 19:41:45 42° ESE 19:48:30 10° NE
Milstar 3 Cent rocket 3.0 19:41:50 10° WSW 19:44:49 29° SSW 19:44:49 29° SSW
CZ-4B R/B 3.4 19:44:54 52° SSE 19:46:10 81° ENE 19:51:19 10° N
NOSS 3-2 (C) 2.8 19:44:16 28° SSW 19:46:54 89° ESE 19:52:27 10° NNE
BREEZE-M R/B 3.4 19:48:41 56° ESE 19:48:41 56° ESE 19:55:23 10° ENE
Okean O Rocket 3.3 19:47:26 19° SW 19:49:24 26° W 19:53:04 10° NW
CZ-2C R/B 4.2 19:52:28 20° NNE 19:52:28 20° NNE 19:53:35 10° N
OAO 2 Rocket 3.2 19:50:27 10° WSW 19:55:40 70° S 19:56:18 62° SE
Cosmos 1953 4.1 19:53:44 10° NNE 19:55:23 18° NE 19:55:23 18° NE
Nadezhda 2 Rocket 4.5 19:50:24 10° N 19:56:46 76° E 19:58:42 48° SSE
ATLAS 2AS CENTAUR R/B 4.2 19:59:50 10° WNW 20:05:02 24° WSW 20:08:10 17° SW
Cosmos 1745 Rocket 4.4 19:59:15 10° N 20:05:17 47° E 20:06:25 42° ESE
CZ-4B R/B 3.8 20:07:53 37° W 20:07:56 37° W 20:11:34 10° NNW
Cosmos 1461 3.6 20:09:09 10° NNW 20:11:30 40° NNW 20:11:30 40° NNW
Iridium 4 Rocket 3.5 20:15:34 64° SSW 20:16:28 85° W 20:21:43 10° N
Cosmos 1500 Rocket 3.9 20:15:42 10° NNW 20:19:50 55° W 20:19:50 55° W
Cosmos 1607 4.0 20:13:37 10° NNW 20:20:03 73° ENE 20:21:26 55° ESE
Cosmos 1241 Rocket 4.4 20:18:12 38° SW 20:20:46 82° WNW 20:27:01 10° NNE
Cosmos 1417 Rocket 4.4 20:21:43 60° S 20:22:58 84° E 20:29:16 10° N
Helios 1A 4.0 20:19:15 10° NNE 20:21:45 36° NE 20:21:45 36° NE
BREEZE-M R/B 4.0 20:17:38 10° NW 20:23:42 80° SW 20:24:57 57° SSE
GP-B 3.5 20:19:52 10° N 20:24:08 54° W 20:24:13 54° W
Cosmos 2285 Rocket 4.0 20:20:35 10° NNW 20:26:57 76° WSW 20:28:11 58° S
Cosmos 2315 Rocket 4.0 20:28:49 59° ESE 20:29:25 62° E 20:35:34 10° NNE
Cosmos 1538 Rocket 4.3 20:31:24 52° WSW 20:32:20 61° WNW 20:37:30 10° N
Cosmos 1943 Rocket 2.9 20:35:06 39° ENE 20:35:06 39° ENE 20:39:23 10° NE
Meteor 1-21 4.3 20:35:56 61° E 20:35:56 61° E 20:41:20 10° NNE
Cosmos 923 Rocket 4.2 20:41:03 57° ENE 20:41:03 57° ENE 20:45:31 10° NNE
Cosmos 1328 Rocket 4.2 20:47:48 54° NNW 20:47:48 54° NNW 20:51:18 10° N
USA 215 3.4 20:50:09 48° ESE 20:51:58 68° NE 20:58:26 10° NW
CZ-2C R/B 4.5 20:48:17 10° NNE 20:51:46 46° NE 20:51:46 46° NE
BREEZE-M DEB (TANK) 4.3 20:29:44 10° WNW 20:53:27 74° NNE 20:55:49 43° ESE
Lacrosse 5 rocket 3.3 20:57:41 21° N 20:57:41 21° N 20:59:12 10° NNE
Cosmos 1666 Rocket 4.4 20:57:19 10° NNW 21:00:30 46° NNW 21:00:30 46° NNW
GEOS 3 Rocket 4.4 21:04:15 41° ENE 21:04:59 43° NE 21:10:03 10° NNW
S3M 4.4 21:04:02 46° WSW 21:05:10 51° W 21:11:07 10° N
Timation 1 Rocket 4.4 21:05:36 10° NNW 21:11:33 65° ENE 21:11:42 65° ENE
USA 59 Rocket 2.4 21:16:05 12° NNE 21:16:05 12° NNE 21:16:22 10° NNE
Spot 4 4.4 21:20:33 55° NNE 21:20:33 55° NNE 21:24:27 10° N
ARGOS Delta rocket 4.4 21:17:50 10° N 21:22:52 57° WNW 21:22:52 57° WNW
Cosmos 1833 Rocket 3.0 21:17:56 10° NNW 21:22:56 59° WNW 21:22:56 59° WNW
Cosmos 1709 Rocket 4.4 21:18:11 10° NNW 21:24:19 53° W 21:24:50 51° WSW
Meteor 1-16 Rocket 4.3 21:21:37 10° NNW 21:26:46 69° WNW 21:26:46 69° WNW
Cosmos 2278 Rocket 2.2 21:28:07 76° N 21:28:07 76° N 21:33:20 10° NNE
Cosmos 2082 Rocket 3.7 21:24:21 10° N 21:29:03 26° ENE 21:30:04 25° ENE
Cosmos 1680 Rocket 4.2 21:42:32 45° WNW 21:42:32 45° WNW 21:47:19 10° N
Cosmos 1624 Rocket 4.3 21:42:33 10° NNW 21:47:03 63° N 21:47:03 63° N
CZ-2C R/B 3.4 21:43:58 10° NNE 21:48:40 65° NNE 21:48:40 65° NNE
USA 238 DEB 4.1 21:48:54 42° W 21:50:18 50° NW 21:56:39 10° NNE
USA 238 4.1 21:49:10 43° W 21:50:31 50° NW 21:56:53 10° NNE
Cosmos 2056 Rocket 4.0 21:49:27 10° NNW 21:53:26 55° NNW 21:53:26 55° NNW
ARIANE 5 R/B 4.2 21:59:12 30° NW 21:59:12 30° NW 22:01:50 10° NNW
ACS3 Solar Sail 2.3 21:54:55 10° NNE 21:59:50 43° E 21:59:50 43° E
ALOS 2 4.4 22:11:55 26° NW 22:11:55 26° NW 22:14:12 10° NNW
Geosat 4.5 22:05:44 10° NNE 22:09:40 56° NE 22:09:40 56° NE
Cosmos 2369 Rocket 3.7 22:13:52 25° E 22:13:52 25° E 22:17:28 10° NE
Exosat Rocket 3.9 22:17:56 67° ENE 22:17:56 67° ENE 22:23:58 10° NNE
Cosmos 1943 Rocket 3.8 22:16:33 23° W 22:17:56 25° WNW 22:22:33 10° N
Meteor 1-24 Rocket 4.4 22:19:30 48° E 22:19:30 48° E 22:25:04 10° NNE
Cosmos 2074 Rocket 4.3 22:19:37 10° NNW 22:25:27 54° W 22:25:27 54° W
CZ-2C R/B 2.9 22:31:43 58° NW 22:31:43 58° NW 22:35:58 10° NNW
Cosmos 2327 Rocket 4.4 22:32:18 10° N 22:38:25 72° E 22:38:38 71° E
Cosmos 1452 Rocket 3.6 22:47:18 10° NNW 22:52:03 71° N 22:52:03 71° N
Cosmos 962 Rocket 4.3 22:51:17 10° N 22:57:39 83° W 22:58:02 79° SSW
Meteor 2-15 4.3 22:52:22 10° N 22:58:29 79° E 22:58:53 75° SE
Meteor 2-13 Rocket 4.3 22:58:49 82° SW 22:59:04 86° W 23:05:14 10° N
SL-8 R/B 4.4 23:00:12 50° NNW 23:00:12 50° NNW 23:04:33 10° NE
Cosmos 1703 Rocket 4.5 23:03:48 44° NE 23:03:48 44° NE 23:07:04 10° NNE
NOSS 3-1 (C) 3.1 23:04:15 62° NNE 23:04:15 62° NNE 23:08:35 10° NNE
Cosmos 1315 Rocket 4.3 23:08:31 10° N 23:10:37 32° N 23:10:37 32° N
Cosmos 2082 Rocket 3.2 23:08:00 10° NW 23:11:51 34° WNW 23:11:51 34° WNW
Cosmos 2341 Rocket 3.8 23:07:37 10° N 23:13:53 82° W 23:14:23 75° SSW
ATLAS 5 CENTAUR R/B 3.6 23:16:46 15° N 23:16:46 15° N 23:17:30 10° NNE
MSX 4.4 23:09:54 10° NNE 23:15:26 46° E 23:16:10 44° ESE
Cosmos 1818 3.7 23:23:32 59° ESE 23:23:32 59° ESE 23:28:50 10° NE
SL-8 Rocket 4.0 23:22:53 10° NNW 23:28:53 58° W 23:29:14 57° WSW
COSMOS 2406 3.2 23:26:02 10° NNW 23:31:27 64° W 23:31:27 64° W
SL-4 R/B 3.8 23:34:12 22° NE 23:34:12 22° NE 23:35:29 10° NE
Meteor 2-15 Rocket 4.3 23:29:29 10° N 23:35:35 73° W 23:36:20 65° SW
ACS3 Solar Sail 3.1 23:37:51 10° NNW 23:42:17 24° WNW 23:43:12 23° W
SJ 16-02 3.7 23:41:28 12° ESE 23:42:30 13° E 23:44:27 10° ENE
Cosmos 1908 Rocket 3.9 23:38:13 10° NNW 23:41:54 56° NW 23:41:54 56° NW
ARIANE 6 FM1 Upper Stage 3.6 23:43:05 40° NW 23:43:05 40° NW 23:46:42 10° NNE
Cosmos 2297 4.0 23:44:14 51° W 23:45:02 55° WNW 23:50:40 10° NNE
Lacrosse 4 Rocket 3.8 23:44:48 10° N 23:48:05 22° NE 23:51:21 10° ESE
Cosmos 1023 Rocket 4.4 23:52:52 65° SSE 23:53:27 73° ESE 23:58:29 10° NNE
BREEZE-M DEB (TANK) 3.8 23:49:41 10° NW 23:54:35 32° NNE 23:57:06 10° E
